• In Portugal
  • List of Countries
  • For 7 days
  • Water Temperature
  • Satellite Maps
  • Weather Map
  • Weather Widgets
  • user-avatar
    Login

    Hourly Weather Kyrdzhali

    Today, 25 September, Tuesday

    Time Temperature Precipitation Wind Pressure Humidity
    00:00 +16°C° 0.1 mm 5 mps 728 mmHg 58%
    01:00 +15°C° 0.1 mm 5 mps 729 mmHg 58%
    02:00 +14°C° 0 mm 6 mps 729 mmHg 57%
    03:00 +13°C° 0.2 mm 6 mps 730 mmHg 59%
    04:00 +13°C° 0.2 mm 6 mps 730 mmHg 60%
    05:00 +11°C° 0.2 mm 6 mps 731 mmHg 62%
    06:00 +10°C° 0.1 mm 6 mps 732 mmHg 61%
    07:00 +10°C° 0.1 mm 5 mps 732 mmHg 59%
    08:00 +10°C° 0 mm 6 mps 732 mmHg 56%
    09:00 +11°C° 0 mm 6 mps 733 mmHg 50%
    10:00 +13°C° 0 mm 5 mps 733 mmHg 44%
    11:00 +14°C° 0 mm 5 mps 733 mmHg 38%
    12:00 +15°C° 0 mm 5 mps 733 mmHg 33%
    13:00 +17°C° 0 mm 5 mps 733 mmHg 28%
    14:00 +19°C° 0 mm 6 mps 733 mmHg 23%
    15:00 +19°C° 0 mm 6 mps 733 mmHg 23%
    16:00 +17°C° 0 mm 6 mps 733 mmHg 24%
    17:00 +17°C° 0 mm 6 mps 733 mmHg 24%
    18:00 +15°C° 0 mm 5 mps 734 mmHg 26%
    19:00 +13°C° 0 mm 5 mps 734 mmHg 29%
    20:00 +12°C° 0 mm 4 mps 734 mmHg 32%
    21:00 +11°C° 0 mm 4 mps 735 mmHg 34%
    22:00 +10°C° 0 mm 4 mps 735 mmHg 37%
    23:00 +9°C° 0 mm 3 mps 736 mmHg 40%

    Tomorrow, 26 September, Wednesday

    Time Temperature Precipitation Wind Pressure Humidity
    00:00 +9°C° 0 mm 3 mps 736 mmHg 41%
    01:00 +8°C° 0 mm 4 mps 736 mmHg 42%
    02:00 +7°C° 0 mm 4 mps 736 mmHg 43%
    03:00 +7°C° 0 mm 4 mps 736 mmHg 44%
    04:00 +7°C° 0 mm 4 mps 736 mmHg 46%
    05:00 +6°C° 0 mm 4 mps 736 mmHg 48%
    06:00 +7°C° 0 mm 5 mps 737 mmHg 47%
    07:00 +8°C° 0 mm 5 mps 737 mmHg 46%
    08:00 +8°C° 0 mm 6 mps 738 mmHg 45%
    09:00 +10°C° 0 mm 7 mps 738 mmHg 40%
    10:00 +11°C° 0 mm 8 mps 738 mmHg 36%
    11:00 +13°C° 0 mm 8 mps 738 mmHg 31%
    12:00 +13°C° 0 mm 9 mps 738 mmHg 29%
    13:00 +15°C° 0 mm 9 mps 738 mmHg 28%
    14:00 +16°C° 0 mm 9 mps 737 mmHg 26%
    15:00 +15°C° 0 mm 9 mps 737 mmHg 28%
    16:00 +15°C° 0 mm 9 mps 737 mmHg 29%
    17:00 +13°C° 0 mm 8 mps 737 mmHg 30%
    18:00 +12°C° 0 mm 8 mps 737 mmHg 34%
    19:00 +10°C° 0 mm 7 mps 737 mmHg 37%
    20:00 +9°C° 0 mm 6 mps 738 mmHg 41%
    21:00 +8°C° 0 mm 6 mps 738 mmHg 43%
    22:00 +8°C° 0 mm 6 mps 738 mmHg 44%
    23:00 +7°C° 0 mm 6 mps 738 mmHg 46%

    Day after tomorrow, 27 September, Thursday

    Time Temperature Precipitation Wind Pressure Humidity
    00:00 +7°C° 0 mm 6 mps 738 mmHg 47%
    01:00 +5°C° 0 mm 6 mps 738 mmHg 48%
    02:00 +6°C° 0 mm 5 mps 737 mmHg 50%
    03:00 +5°C° 0 mm 5 mps 737 mmHg 51%
    04:00 +5°C° 0 mm 5 mps 737 mmHg 52%
    05:00 +5°C° 0 mm 5 mps 737 mmHg 53%
    06:00 +5°C° 0 mm 6 mps 737 mmHg 49%
    07:00 +7°C° 0 mm 6 mps 737 mmHg 45%
    08:00 +8°C° 0 mm 7 mps 737 mmHg 41%
    09:00 +10°C° 0 mm 7 mps 737 mmHg 36%
    10:00 +11°C° 0 mm 7 mps 737 mmHg 31%
    11:00 +14°C° 0 mm 7 mps 737 mmHg 26%
    12:00 +15°C° 0 mm 7 mps 736 mmHg 25%
    13:00 +16°C° 0 mm 7 mps 736 mmHg 24%
    14:00 +17°C° 0 mm 6 mps 736 mmHg 22%
    15:00 +17°C° 0 mm 6 mps 735 mmHg 23%
    16:00 +16°C° 0 mm 6 mps 735 mmHg 24%
    17:00 +16°C° 0 mm 5 mps 735 mmHg 25%
    18:00 +14°C° 0 mm 5 mps 735 mmHg 29%
    19:00 +12°C° 0 mm 4 mps 735 mmHg 33%
    20:00 +10°C° 0 mm 3 mps 735 mmHg 37%
    21:00 +10°C° 0 mm 3 mps 735 mmHg 41%
    22:00 +9°C° 0 mm 3 mps 735 mmHg 44%
    23:00 +8°C° 0 mm 3 mps 735 mmHg 48%

    28 September, Friday

    Time Temperature Precipitation Wind Pressure Humidity
    00:00 +8°C° 0 mm 3 mps 734 mmHg 49%
    01:00 +8°C° 0 mm 3 mps 734 mmHg 49%
    02:00 +7°C° 0 mm 3 mps 733 mmHg 50%
    03:00 +7°C° 0 mm 3 mps 733 mmHg 49%
    04:00 +7°C° 0 mm 3 mps 733 mmHg 49%
    05:00 +7°C° 0 mm 3 mps 733 mmHg 48%
    06:00 +8°C° 0 mm 3 mps 733 mmHg 44%
    07:00 +10°C° 0 mm 3 mps 733 mmHg 39%
    08:00 +11°C° 0 mm 3 mps 733 mmHg 35%
    09:00 +13°C° 0 mm 3 mps 732 mmHg 32%
    10:00 +16°C° 0 mm 3 mps 732 mmHg 30%
    11:00 +18°C° 0 mm 4 mps 732 mmHg 27%
    12:00 +19°C° 0 mm 3 mps 732 mmHg 26%
    13:00 +20°C° 0 mm 3 mps 731 mmHg 24%
    14:00 +21°C° 0 mm 3 mps 731 mmHg 23%
    15:00 +21°C° 0 mm 3 mps 730 mmHg 24%
    16:00 +21°C° 0 mm 3 mps 730 mmHg 26%
    17:00 +20°C° 0 mm 2 mps 729 mmHg 27%
    18:00 +18°C° 0 mm 2 mps 729 mmHg 32%
    19:00 +16°C° 0 mm 2 mps 729 mmHg 37%
    20:00 +14°C° 0 mm 2 mps 729 mmHg 41%
    21:00 +14°C° 0 mm 2 mps 729 mmHg 45%
    22:00 +13°C° 0 mm 1 mps 729 mmHg 49%
    23:00 +13°C° 0 mm 1 mps 729 mmHg 52%

    29 September, Saturday

    Time Temperature Precipitation Wind Pressure Humidity
    00:00 +13°C° 0 mm 1 mps 728 mmHg 54%
    01:00 +12°C° 0 mm 1 mps 728 mmHg 56%
    02:00 +12°C° 0 mm 1 mps 728 mmHg 59%
    03:00 +12°C° 0 mm 1 mps 728 mmHg 59%
    04:00 +12°C° 0 mm 1 mps 727 mmHg 60%
    05:00 +11°C° 0 mm 1 mps 727 mmHg 61%
    06:00 +13°C° 0 mm 1 mps 727 mmHg 57%
    07:00 +14°C° 0 mm 1 mps 727 mmHg 54%
    08:00 +15°C° 0 mm 1 mps 727 mmHg 50%
    09:00 +18°C° 0 mm 1 mps 727 mmHg 44%
    10:00 +19°C° 0 mm 2 mps 728 mmHg 39%
    11:00 +21°C° 0 mm 2 mps 728 mmHg 34%
    12:00 +23°C° 0 mm 2 mps 727 mmHg 32%
    13:00 +24°C° 0 mm 2 mps 727 mmHg 30%
    14:00 +24°C° 0 mm 2 mps 726 mmHg 28%
    15:00 +24°C° 0 mm 2 mps 726 mmHg 29%
    16:00 +24°C° 0 mm 2 mps 726 mmHg 29%
    17:00 +23°C° 0 mm 2 mps 726 mmHg 30%
    18:00 +21°C° 0 mm 2 mps 726 mmHg 32%
    19:00 +20°C° 0 mm 1 mps 727 mmHg 34%
    20:00 +19°C° 0 mm 1 mps 727 mmHg 35%
    21:00 +19°C° 0 mm 1 mps 727 mmHg 36%
    22:00 +17°C° 0 mm 2 mps 727 mmHg 37%
    23:00 +17°C° 0 mm 2 mps 727 mmHg 38%

    30 September, Sunday

    Time Temperature Precipitation Wind Pressure Humidity
    00:00 +17°C° 0 mm 2 mps 727 mmHg 42%
    01:00 +16°C° 0 mm 2 mps 727 mmHg 45%
    02:00 +16°C° 0 mm 2 mps 727 mmHg 49%
    03:00 +15°C° 0 mm 2 mps 727 mmHg 54%
    04:00 +15°C° 0 mm 2 mps 728 mmHg 59%
    05:00 +14°C° 0 mm 2 mps 728 mmHg 63%
    06:00 +14°C° 0 mm 3 mps 728 mmHg 64%
    07:00 +16°C° 0 mm 3 mps 728 mmHg 65%
    08:00 +15°C° 0 mm 4 mps 728 mmHg 67%
    09:00 +17°C° 0 mm 4 mps 729 mmHg 64%
    10:00 +17°C° 0 mm 5 mps 729 mmHg 61%
    11:00 +19°C° 0 mm 5 mps 729 mmHg 58%
    12:00 +20°C° 0 mm 6 mps 729 mmHg 56%
    13:00 +20°C° 0 mm 6 mps 729 mmHg 54%
    14:00 +21°C° 0 mm 6 mps 728 mmHg 52%
    15:00 +20°C° 0 mm 6 mps 728 mmHg 56%
    16:00 +20°C° 0 mm 6 mps 728 mmHg 60%
    17:00 +19°C° 0 mm 6 mps 728 mmHg 63%
    18:00 +17°C° 0 mm 6 mps 728 mmHg 67%
    19:00 +16°C° 0 mm 5 mps 728 mmHg 71%
    20:00 +16°C° 0 mm 5 mps 728 mmHg 75%
    21:00 +15°C° 0 mm 5 mps 728 mmHg 77%
    22:00 +15°C° 0 mm 4 mps 728 mmHg 79%
    23:00 +15°C° 0 mm 4 mps 728 mmHg 81%
    Show more